Home > Weather > Kharagpur > Past weeks

Flag for India Weather for the Past 2 Weeks in Kharagpur, West Bengal, India

Now
95 °F

Haze.


Feels Like: 98 °F
Forecast: 78 / 99 °F
Wind: 6 mph from East

Location: Lucknow / Amausi

Current Time: May 4, 2016 at 7:36:03 PM

Latest Report: May 4, 2016 at 7:00 PM


Visibility: 2 mi

Pressure: 29.62 "Hg

Humidity: 39%

Dew Point: 66 °F

Location of KharagpurLocation

Historic Weather in Kharagpur — Graph

°F

Kharagpur Temperature Yesterday

Maximum temperature yesterday: 104 °F (at 4:00 PM)
Minimum temperature yesterday: 81 °F (at 6:00 AM)
Average temperature yesterday: 92 °F

High & Low Weather Summary for the Past Weeks

 TemperatureHumidityPressure
High122 °F (May 4, 5:00 AM)70% (May 3, 6:00 AM)29.80 "Hg (May 3, 6:00 AM)
Low72 °F (Apr 25, 6:00 AM)6% (May 4, 5:00 AM)29.45 "Hg (Apr 23, 4:00 AM)
Average95 °F24%29.63 "Hg
* Reported Apr 19 6:30 PM — May 4 6:30 PM, Kharagpur, Weather by CustomWeather, © 2016

Note: Actual official high and low records may vary slightly from our data, if they occured in-between our weather recording intervals... More about our weather records

Advertising

Kharagpur Weather History for the Previous 24 Hours

Scroll right to see more
 ConditionsComfort  
Time TempWeatherWind HumidityBarometerVisibility
6:30 PM
Wed, May 4
97 °FHaze.2 mph37%29.62 "Hg3 mi
6:00 PM99 °FHaze.5 mph35%29.62 "Hg3 mi
4:30 PM100 °FHaze.8 mph31%29.62 "Hg3 mi
4:00 PM102 °FHaze.7 mph31%29.62 "Hg3 mi
3:30 PM102 °FHaze.9 mph31%29.62 "Hg3 mi
2:30 PM100 °FHaze.9 mph35%29.65 "Hg3 mi
2:00 PM99 °FBroken clouds.6 mph35%29.68 "Hg3 mi
1:30 PM99 °FBroken clouds.6 mph37%29.71 "Hg3 mi
12:00 PM95 °FBroken clouds.9 mph41%29.74 "Hg3 mi
11:30 AM93 °FBroken clouds.7 mph47%29.74 "Hg3 mi
10:30 AM90 °FBroken clouds.5 mph52%29.77 "Hg3 mi
10:00 AM88 °FBroken clouds.8 mph52%29.80 "Hg2 mi
9:30 AM86 °FBroken clouds.10 mph52%29.77 "Hg2 mi
9:00 AM84 °FBroken clouds.8 mph55%29.77 "Hg2 mi
8:30 AM82 °FBroken clouds.12 mph51%29.77 "Hg2 mi
7:00 AM82 °FScattered clouds.5 mph58%29.68 "Hg2 mi
6:30 AM81 °FBroken clouds.No wind58%29.65 "Hg2 mi
5:30 AM82 °FMostly cloudy.5 mph55%29.68 "Hg2 mi
5:00 AM122 °FExtremely hot.N/A6%N/AN/A
4:00 AM82 °FMostly cloudy.7 mph51%29.62 "Hg2 mi
3:00 AM81 °FMostly cloudy.5 mph58%29.62 "Hg2 mi
2:00 AM82 °FMostly cloudy.No wind55%29.65 "Hg2 mi
1:00 AM84 °FMostly cloudy.7 mph58%29.68 "Hg2 mi
12:00 AM88 °FThunderstorms. Mostly cloudy.6 mph43%29.65 "Hg1 mi
10:00 PM
Tue, May 3
95 °FPartly cloudy.2 mph47%29.68 "Hg2 mi
9:00 PM95 °FPartly cloudy.2 mph44%29.65 "Hg2 mi
8:30 PM95 °FPartly cloudy.3 mph44%29.65 "Hg2 mi
8:00 PM97 °FPassing clouds.3 mph42%29.62 "Hg2 mi
7:30 PM97 °FPassing clouds.6 mph42%29.59 "Hg2 mi
7:00 PM99 °FScattered clouds.6 mph42%29.56 "Hg2 mi
Weather by CustomWeather, © 2016

See weather overviewHow to use our weather pages